Погода в Кваликум-Бич

Канада     49°21′15″N   124°26′34″W
темп.,
°C
ветер,
м/с
пор.,
м/с
влажн.,
%
обл.,
%
осадки,
мм/ч
давл.,
гПа
погр.,
м
8 марта, пн
пн801:00−1ююв229588 0.1 102161
04:00−1юв239693 0.1 101986
07:000вюв1397100 0.0 1017119
10:00+4в137792 0.0 1015571
13:00+6всв2364100 0.0 10151065
16:00+4св227299 0.0 1014443
19:00−1ююв118854 0.0 101421
22:00−1ююв117876 0.0 101522
9 марта, вт
вт901:000вюв2284100 0.0 101546
04:00−1ю1295100 0.2 101527
07:00−2юв129436 0.0 101542
10:00+3всв239057 0.1 1015437
13:00+4всв2385100 0.4 1015640
16:00+3в1293100 1.1 1015283
19:00+1зсз119795 0.1 101533
22:00+1сз119998 0.1 101652
10 марта, ср
ср1001:000зсз119697 0.0 101648
04:00−2юз119673 0.0 101622
07:00−2юз119399 0.0 101521
10:00+1ссв129399 0.1 1016268
13:00+4с237586 0.3 1016811
16:00+4ссв226862 0.4 1016792
19:00−1юз11890 0.0 101922
22:00−1ююз11870 0.0 102122
11 марта, чт
чт1101:00−1ююз11910 0.0 102221
04:00−2ююз11910 0.0 102321
07:00−3ююз11900 0.0 102521
10:00+4с116814 0.0 1025586
13:00+4св1173100 0.1 1026519
16:00+5всв0172100 0.2 1026764
19:000ююз1195100 0.1 102723
22:00−1ююз2295100 0.1 102832
12 марта, пт
пт1201:00−1ююз2295100 0.0 102842
04:00−1ююз1192100 0.0 102828
07:00−1ю119087 0.0 102827
10:00+5в126882 0.0 1028659
13:00+8всв026473 0.0 1028831
16:00+4з129186 0.2 1027241
19:00+2юз2398100 0.9 1027143
22:00+2ю1296100 1.1 102763